• Processing (Info)

  • MPEC 2006-Y06 : 2006 XP4

    The following Minor Planet Electronic Circular may be linked-to from your own Web pages, but must not otherwise be redistributed electronically.

    A form allowing access to any MPEC is at the bottom of this page.


    Read MPEC 2006-Y05 Read MPEC 2006-Y07


    M.P.E.C. 2006-Y06                                Issued 2006 Dec. 16, 16:25 UT
    
         The Minor Planet Electronic Circulars contain information on unusual
             minor planets and routine data on comets.  They are published
       on behalf of Commission 20 of the International Astronomical Union by the
              Minor Planet Center, Smithsonian Astrophysical Observatory,
                              Cambridge, MA 02138, U.S.A.
    
                 Prepared using the Tamkin Foundation Computer Network
    
                                  MPC@CFA.HARVARD.EDU
              URL http://cfa-www.harvard.edu/iau/mpc.html  ISSN 1523-6714
    
                                       2006 XP4
    
    Observations:
         K06X04P* C2006 12 14.48509 09 22 45.37 +18 00 47.8          21.5 V EY006G96
         K06X04P  C2006 12 14.49023 09 22 44.40 +18 00 51.3          21.4 V EY006G96
         K06X04P  C2006 12 14.49524 09 22 43.53 +18 00 53.9          21.0 V EY006G96
         K06X04P  C2006 12 14.50049 09 22 42.63 +18 00 57.3          21.0 V EY006G96
         K06X04P  C2006 12 14.53376 09 22 36.66 +18 01 18.6          20.4 V EY006G96
         K06X04P  C2006 12 14.53499 09 22 36.40 +18 01 19.1          20.5 V EY006G96
         K06X04P  C2006 12 14.53623 09 22 36.21 +18 01 19.7          20.9 V EY006G96
         K06X04P  C2006 12 14.53745 09 22 36.06 +18 01 20.6          21.7 V EY006G96
         K06X04P  C2006 12 14.54050 09 22 35.50 +18 01 23.4          20.3 V EY006G96
         K06X04P  C2006 12 14.54172 09 22 35.22 +18 01 23.1          20.9 V EY006G96
         K06X04P  C2006 12 14.54296 09 22 35.00 +18 01 24.6          19.6 V EY006G96
         K06X04P  C2006 12 14.54419 09 22 34.78 +18 01 24.9          21.4 V EY006G96
         K06X04P  C2006 12 15.43515 09 20 18.09 +18 11 32.7          20.6 V EY006G96
         K06X04P  C2006 12 15.43604 09 20 17.95 +18 11 33.5          20.9 V EY006G96
         K06X04P  C2006 12 15.43692 09 20 17.73 +18 11 34.1          20.7 V EY006G96
         K06X04P  C2006 12 15.43780 09 20 17.59 +18 11 34.6          20.7 V EY006G96
         K06X04P  C2006 12 16.43248 09 17 29.40 +18 23 33.2          20.6 V EY006G96
         K06X04P  C2006 12 16.44349 09 17 27.16 +18 23 41.7          20.8 V EY006G96
         K06X04P  C2006 12 16.44898 09 17 26.02 +18 23 45.9          21.0 V EY006G96
         K06X04P HC2006 12 16.54290 09 17 06.69 +18 24 54.1                 EY006291
         K06X04P HC2006 12 16.54755 09 17 05.66 +18 24 58.3                 EY006291
         K06X04P  C2006 12 16.55174 09 17 04.91 +18 25 00.2                 EY006291
    
    Observer details:
    291 LPL/Spacewatch II.  Observer J. V. Scotti.  1.8-m f/2.7 reflector + CCD.
    G96 Mt. Lemmon Survey.  Observers R. E. Hill, E. J. Christensen.  Measurers
        E. C. Beshore, E. J. Christensen, G. J. Garradd, A. R. Gibbs, A. D. Grauer,
        R. E. Hill, R. A. Kowalski, S. M. Larson, R. H. McNaught.  1.5-m reflector
        + CCD.
    
    Orbital elements:
    2006 XP4                                                 Earth MOID = 0.0041 AU
    Epoch 2007 Apr. 10.0 TT = JDT 2454200.5                 MPC
    M 303.03475              (2000.0)            P               Q
    n   1.21611081     Peri.  343.09623     +0.16605784     +0.98607860
    a   0.8692685      Node   296.46176     -0.90363041     +0.14867444
    e   0.2186999      Incl.    0.54974     -0.39481245     +0.07446406
    P   0.81           H   23.7           G   0.15           U   9
    Residuals in seconds of arc
    061214 G96  0.0   0.2-    061214 G96  0.7+  0.9+    061216 G96  0.0   0.5-
    061214 G96  0.6-  0.0     061214 G96  0.2-  0.1-    061216 G96  0.4+  0.4-
    061214 G96  0.2-  0.6-    061214 G96  0.2-  0.6+    061216 G96  0.4+  0.4-
    061214 G96  0.4+  0.5-    061214 G96  0.3-  0.2+    061216 291  0.2+  0.3-
    061214 G96  0.1+  0.2+    061215 G96  0.2-  0.2-    061216 291  0.9-  0.7+
    061214 G96  0.5-  0.1-    061215 G96  0.2+  0.0     061216 291  0.5+  0.2-
    061214 G96  0.0   0.2-    061215 G96  0.5-  0.1-
    061214 G96  0.9+  0.1-    061215 G96  0.1-  0.2-
    
    Ephemeris:
    2006 XP4                 a,e,i = 0.87, 0.22, 1                   q = 0.6792
    Date    TT    R. A. (2000) Decl.     Delta      r     Elong.  Phase     V
    2006 12 11    09 30.35   +17 27.2    0.120    1.049   119.3    54.9    21.2
    2006 12 16    09 18.72   +18 18.6    0.109    1.054   127.3    48.0    20.8
    2006 12 21    09 01.48   +19 28.5    0.0976   1.057   136.6    39.7    20.3
    2006 12 26    08 36.99   +20 54.7    0.0878   1.059   147.6    29.8    19.8
    2006 12 31    08 04.12   +22 26.4    0.0801   1.059   160.5    18.1    19.3
    2007 01 05    07 23.28   +23 41.9    0.0752   1.058   174.9     4.7    18.6
    2007 01 10    06 37.61   +24 16.1    0.0735   1.056   169.3    10.0    18.8
    2007 01 15    05 52.70   +23 58.0    0.0753   1.052   154.0    24.2    19.3
    2007 01 20    05 13.73   +23 00.3    0.0800   1.046   139.9    37.3    19.8
    2007 01 25    04 42.98   +21 46.6    0.0868   1.040   127.6    48.6    20.3
    2007 01 30    04 19.90   +20 34.0    0.0948   1.032   117.1    58.3    20.7
    2007 02 04    04 02.80   +19 29.9    0.103    1.022   107.8    66.6    21.2
    2007 02 09    03 49.96   +18 35.6    0.112    1.011    99.6    74.1    21.6
    
    Kyle E. Smalley              (C) Copyright 2006 MPC           M.P.E.C. 2006-Y06
    

    Read MPEC 2006-Y05 Read MPEC 2006-Y07


    MPEC number:

    Enter an MPEC number in one of the following forms:

    • 1997-B01 (the full form)
    • J97B01 (the packed version of the full form)
    • B01 (the abbreviated form)